Regional Weather Roundup
Issued by NWS

Home | Current Version | Previous Version | Text Only | Print | Product List | Glossary Off
Versions: 1 2 3 4 5 6 7 8 9 10 11 12 13 14 15 16 17 18 19 20 21 22 23 24 25 26 27 28 29 30 31 32 33 34 35 36 37 38 39 40 41 42 43 44 45 46 47 48 49 50

000
ASUS45 KABQ 241810
RWRNM
WEATHER ROUNDUP FOR NEW MEXICO
NATIONAL WEATHER SERVICE ALBUQUERQUE NM
1100 AM MST WED DEC 24 2014

NOTE: "FAIR" MEANS FEW OR NO CLOUDS BELOW 12,000 FEET AGL WITH NO
       SIGNIFICANT WEATHER OR OBSTRUCTIONS TO VISION.

      THIS PRODUCT IS RELEASED AS TWO VERSIONS.  ONE VERSION NEAR
      THE TOP OF THE HOUR CONTAINING PRELIMINARY DATA FROM ALBUQUERQUE
      AND OTHER STATIONS.  A FINAL VERSION WITH ADDITIONAL DATA IS
      ISSUED ABOUT 10 MINUTES AFTER THE HOUR.

NMZ501-503-504-510>518-241900-
NORTHWEST PLATEAU/NORTHCENTRAL MOUNTAINS

CITY           SKY/WX    TMP DP  RH WIND       PRES   REMARKS
FARMINGTON     SUNNY     28  12  51 SE6       30.15F WCI  22
6HR MIN TEMP:  13; 6HR MAX TEMP:  28;

LOS ALAMOS     SUNNY     25   1  35 CALM      30.10F
SANTA FE       SUNNY     29   7  39 N13       30.10F WCI  19
6HR MIN TEMP:  12; 6HR MAX TEMP:  29;

TAOS           SUNNY     23   3  42 NW3       30.11F
ANGEL FIRE     FAIR      25   0  34 SW9       30.03F WCI  15

$$
NMZ402-403-502-505>509-241900-
WESTCENTRAL MOUNTAINS/SOUTHWEST MOUNTAINS

CITY           SKY/WX    TMP DP  RH WIND       PRES   REMARKS
GALLUP         SUNNY     33   9  36 SW7       30.15F WCI  27
6HR MIN TEMP:  11; 6HR MAX TEMP:  33;

GRANTS         SUNNY     32   8  36 N5        30.16F WCI  27
SILVER CITY    SUNNY     39   5  24 SE7       30.21F WCI  34

$$
NMZ407-409-411-412-241900-
SOUTHERN DESERTS

CITY           SKY/WX    TMP DP  RH WIND       PRES   REMARKS
LORDSBURG      FAIR      41  12  30 S6        30.21F
DEMING         SUNNY     41   6  23 SE5       30.22F
6HR MIN TEMP:  16; 6HR MAX TEMP:  41;

LAS CRUCES     SUNNY     40   8  27 CALM      30.23F
HOLLOMAN AFB   SUNNY     39  17  41 S1        30.21F
ALAMOGORDO     SUNNY     39  14  35 CALM      30.23F
T OR C         SUNNY     40   8  26 E6        30.18F
6HR MIN TEMP:  22; 6HR MAX TEMP:  40;


$$
NMZ519>523-241900-
CENTRAL VALLEYS/CENTRAL HIGHLANDS

CITY           SKY/WX    TMP DP  RH WIND       PRES   REMARKS
ALBUQUERQUE    MOSUNNY   34  10  37 CALM      30.18F
6HR MIN TEMP:  18; 6HR MAX TEMP:  34;

DOUBLE EAGLE   SUNNY     32   9  37 CALM      30.16F
MORIARTY ARPT  FAIR      32   9  38 NW9       30.12F WCI  24
6HR MIN TEMP:   6; 6HR MAX TEMP:  32;

CLINES CORNERS SUNNY     30   4  33 NW31G40   30.00F WCI  15
6HR MIN TEMP:  12; 6HR MAX TEMP:  30;

BELEN          FAIR      35  10  35 N3        30.18F
6HR MIN TEMP:  14; 6HR MAX TEMP:  35;

SOCORRO        FAIR      36   7  30 S5        30.20F WCI  32
6HR MIN TEMP:  19; 6HR MAX TEMP:  36;


$$
NMZ524>526-539-540-241900-
SOUTHCENTRAL MOUNTAINS

CITY           SKY/WX    TMP DP  RH WIND       PRES   REMARKS
RUIDOSO        SUNNY     36   0  21 NW15G22   30.10F WCI  26

$$
NMZ527>531-241900-
NORTHEAST HIGHLANDS/NORTHEAST PLAINS

CITY           SKY/WX    TMP DP  RH WIND       PRES   REMARKS
LAS VEGAS      SUNNY     35   7  31 S12       29.98F WCI  27
6HR MIN TEMP:   9; 6HR MAX TEMP:  35;

RATON          SUNNY     22  10  60 E6        29.97F WCI  14
6HR MIN TEMP:  -1; 6HR MAX TEMP:  22;

CLAYTON        SUNNY     37   9  31 SW14      29.96F WCI  28
6HR MIN TEMP:  16; 6HR MAX TEMP:  37;


$$
NMZ532>537-241900-
EASTCENTRAL PLAINS

CITY           SKY/WX    TMP DP  RH WIND       PRES   REMARKS
TUCUMCARI      SUNNY     39  13  34 W16       30.03F WCI  30
6HR MIN TEMP:  20; 6HR MAX TEMP:  39;

CANNON AFB     SUNNY     38  15  39 W20G29    30.07F WCI  28
6HR MIN TEMP:  22; 6HR MAX TEMP:  38;

CLOVIS AIRPORT SUNNY     39  14  35 SW21      30.07F WCI  29

$$
NMZ028-029-538-241900-
SOUTHEAST PLAINS

CITY           SKY/WX    TMP DP  RH WIND       PRES   REMARKS
ROSWELL        SUNNY     45  17  32 SW12      30.14F
6HR MIN TEMP:  20; 6HR MAX TEMP:  45;

ARTESIA        SUNNY     45  21  39 S17       30.16F
CARLSBAD       SUNNY     45  21  38 S15       30.17F
6HR MIN TEMP:  26; 6HR MAX TEMP:  45;

HOBBS          SUNNY     41  18  38 SW14      30.17F


$$


USA.gov is the U.S. government's official web portal to all federal, state and local government web resources and services.